sat.trackr.live / text

‹ back to catalog

PRAETORIAN SDA_611

NORAD 65574 · 2025-203K

PAYLOAD ACTIVE UNKNOWN

§ Identity

Operator
Country
US
Launch date
2025-09-10
Launch site
AFWTR
Launch vehicle
Mass (kg)
RCS (m²)

Purposes: military

External: N2YO · Heavens-Above · Gunter

§ Orbital elements

Epoch: 2026-09-20T00:36:26.320896Z

Period
104.10 min
Inclination
81.2980°
Eccentricity
0.0004737
Mean motion
13.83314769 rev/d
Perigee alt
948.7 km
Apogee alt
955.6 km
Semi-major
7,330.3 km
B*
3.4324e-4
RAAN
283.2119°
Arg perigee
315.0406°
Mean anomaly
45.0366°
Rev number
5,179

§ Raw data

PRAETORIAN SDA_6111 65574U 25203K   26263.02530464  .00000389  00000+0  34324-3 0  99902 65574  81.2980 283.2119 0004737 315.0406  45.0366 13.83314769 51794

JSON: /api/v1/satellites/65574 · /tle

For live sub-satellite position, see the globe view (requires WebGL).

§ Visibility from observer

Set your observer location to see the next 7 days of passes ≥ 10°. The values pass through the URL so the page stays shareable.

No JS? Fill the form by hand. The geolocation button needs JavaScript.